Theta_e
348 355 355 355 354 354 352 352 352 353 354 354 354 355 355 356 356 355 356 355 355 354 354 355 354 355 354 354 354 354 354 354 353 353 353 352 351 350 351 350 350 351 351 351 351 350 350 350 349 348 348 347 345 346 346 347 347 346 347 348 348 349 349 349 350 350 349 348 348 349 349 348 347 347 346 344 343 343 345 346 349 344 344 344 343
349 356 355 353 354 354 352 352 352 352 353 353 353 354 355 355 355 355 355 355 354 354 354 354 355 354 354 354 354 354 354 353 353 352 351 351 351 350 350 349 349 348 348 348 351 350 350 349 349 349 349 348 346 346 345 345 346 345 347 346 347 348 348 348 348 348 348 346 346 347 347 346 346 346 346 345 344 343 344 344 347 343 342 344 343
355 356 354 353 354 353 352 352 352 352 353 353 354 354 354 354 354 354 354 354 355 354 354 354 354 354 354 354 354 354 353 353 352 351 351 351 350 350 349 349 348 348 348 348 348 348 348 347 347 348 349 348 347 346 345 345 345 345 346 346 346 345 345 345 345 345 345 345 346 347 347 347 346 345 345 345 344 344 343 343 343 344 340 341 342
355 355 355 355 354 354 353 352 352 352 353 353 354 354 354 354 354 354 354 355 355 354 354 354 354 354 354 354 354 354 353 352 352 352 351 350 349 349 348 348 347 346 346 347 348 349 348 348 348 348 347 347 348 347 346 345 346 346 345 345 345 345 345 344 343 342 342 343 345 347 348 347 345 345 345 343 344 342 342 342 342 341 340 341 341
354 354 355 353 353 353 352 352 352 352 353 353 354 354 355 354 354 354 355 355 355 354 354 355 354 354 354 354 354 354 353 353 352 351 349 349 349 349 347 346 347 346 345 344 346 348 348 348 347 346 346 348 348 348 347 347 347 347 346 346 345 345 345 345 344 342 340 343 344 347 349 343 345 344 343 342 341 341 342 342 342 340 340 340 340
353 355 353 352 351 353 352 352 351 352 353 354 354 354 355 354 355 354 355 354 354 354 355 354 354 354 354 354 353 353 352 352 351 349 349 349 348 348 345 343 342 343 344 344 344 346 347 347 347 347 348 347 346 345 345 344 345 346 346 346 346 345 344 343 345 345 344 343 347 343 336 339 343 342 344 342 341 342 342 340 339 338 337 338 337
354 355 353 352 352 352 352 352 350 351 352 353 353 354 354 354 355 355 354 354 354 355 354 354 354 354 353 353 353 352 352 351 350 349 349 350 349 347 346 346 345 345 343 344 345 347 348 347 347 347 346 347 347 346 345 345 345 345 345 346 344 345 345 345 344 347 346 347 346 336 334 334 338 339 344 344 342 341 341 338 337 340 339 340 340
354 353 353 353 353 353 352 352 350 351 352 353 353 354 354 355 355 355 354 354 354 354 354 354 354 353 353 353 352 352 352 351 350 350 350 349 347 347 348 346 344 344 344 345 346 346 347 348 348 347 346 347 347 346 345 346 346 346 345 346 344 344 345 345 345 347 348 348 336 337 335 334 336 338 344 343 341 341 340 342 340 342 340 340 341
351 351 352 352 353 352 352 352 351 351 352 353 354 354 354 355 354 354 354 354 354 354 354 354 353 353 353 352 352 352 351 350 349 349 348 349 346 345 344 346 346 346 346 345 346 346 347 347 348 348 347 347 347 346 347 347 349 349 348 346 348 346 346 345 346 347 347 341 336 336 338 336 336 338 343 343 342 342 341 343 340 345 342 341 341
350 351 353 353 354 353 352 352 352 351 352 353 354 354 354 354 354 354 354 354 354 354 354 354 353 353 352 352 352 351 350 349 348 348 348 349 347 346 344 344 344 346 346 347 347 347 347 348 349 348 347 345 346 348 348 349 350 350 349 349 348 349 349 348 349 350 347 337 332 337 343 351 335 334 341 341 342 342 341 342 345 344 342 341 340
350 351 353 354 353 352 352 352 353 352 352 352 354 354 354 354 354 354 354 354 354 354 354 353 353 353 352 351 351 351 349 349 350 350 349 348 346 346 346 346 345 345 346 346 347 347 348 348 347 347 345 345 346 347 347 349 350 350 349 348 347 347 346 349 349 347 338 334 337 337 337 348 337 339 342 342 342 342 341 342 343 342 342 341 339
348 352 353 355 354 351 351 352 353 353 352 353 354 354 354 354 354 354 354 354 354 354 354 353 353 352 352 351 351 351 350 350 350 349 347 347 347 346 346 345 345 345 346 346 346 346 348 347 345 345 346 347 346 347 347 348 350 351 349 347 348 344 347 348 345 346 338 335 333 341 337 337 339 341 343 344 343 343 342 343 343 342 342 342 341
349 350 356 355 353 352 352 352 352 353 352 353 354 354 354 354 354 354 354 354 354 354 353 353 352 352 351 352 351 351 350 350 349 348 347 347 347 346 345 345 345 345 345 346 345 346 347 347 346 345 346 346 346 345 346 347 348 349 349 347 346 347 346 348 347 342 336 336 338 340 338 342 342 346 343 345 345 344 344 343 343 343 343 342 341
347 351 354 354 353 353 352 352 352 353 354 354 354 354 354 354 354 354 354 354 354 353 353 352 352 352 352 351 351 350 350 349 348 348 347 346 346 345 345 345 344 344 344 344 345 347 347 347 348 347 348 349 348 346 346 346 347 348 348 348 346 346 347 348 348 338 336 336 338 334 338 342 342 345 341 345 345 344 343 343 344 344 343 342 342
347 350 352 352 352 352 353 352 353 354 354 354 354 354 354 354 354 354 354 354 354 353 353 352 352 351 352 351 350 349 349 348 347 346 346 345 345 345 345 345 344 344 344 345 346 346 347 347 347 346 345 346 347 348 347 347 346 346 348 348 348 347 347 345 344 337 336 335 339 337 341 342 346 346 344 345 345 344 345 344 344 344 343 342 341
349 351 351 351 350 350 351 353 353 354 354 354 354 354 354 354 354 354 354 353 352 353 353 352 352 351 351 350 349 348 347 346 346 345 345 345 344 343 344 344 345 345 345 345 346 347 347 346 346 346 345 345 346 347 349 347 346 347 347 348 347 348 349 349 343 338 338 338 338 340 342 342 347 345 344 344 345 346 345 345 344 344 344 343 342
350 352 350 349 348 348 347 350 351 354 354 354 354 354 354 354 354 354 353 353 352 352 352 352 351 350 349 348 347 346 345 345 345 344 343 343 342 343 344 344 345 344 345 345 346 346 347 347 347 347 346 344 345 347 346 347 345 346 348 345 348 347 349 350 341 338 336 336 333 337 340 344 346 346 345 345 345 346 346 346 346 345 344 344 343
351 351 348 348 347 347 346 347 349 351 354 355 354 354 354 354 354 353 353 352 352 351 351 350 349 349 347 346 345 344 343 342 341 342 341 341 342 342 343 343 344 345 345 345 346 346 346 346 345 346 346 344 343 343 345 344 345 347 345 348 348 348 348 348 344 341 338 338 337 339 346 349 346 347 345 344 345 345 346 346 346 345 344 343 342
349 347 349 347 346 346 346 347 348 348 351 354 354 357 354 354 353 353 352 351 351 350 350 349 348 347 346 344 344 343 342 340 340 340 340 340 340 341 343 343 344 344 345 345 346 345 344 345 346 345 344 345 343 342 341 342 341 345 347 349 349 349 350 348 344 339 337 340 340 338 346 346 350 346 346 344 344 345 346 347 346 345 344 343 342
347 347 348 347 347 345 345 346 346 349 349 350 352 355 354 354 352 351 351 351 350 350 348 347 346 345 344 343 342 342 341 341 341 341 340 340 341 343 343 343 343 344 345 345 345 344 344 344 344 344 344 343 346 343 342 342 343 341 346 346 349 350 346 345 343 336 335 336 340 344 348 350 348 347 346 345 345 346 346 347 347 346 344 344 343
345 346 347 347 348 347 344 347 345 343 348 351 352 354 353 353 352 351 351 350 350 349 348 346 345 344 343 342 342 344 344 341 342 343 340 342 340 342 342 343 343 344 344 345 346 345 343 343 343 344 345 345 345 344 344 343 343 345 346 348 348 347 345 344 340 338 338 337 339 342 352 349 347 347 345 345 345 346 346 347 347 347 345 345 345
342 345 348 347 346 346 345 346 345 345 346 351 352 352 354 353 352 353 352 351 350 349 348 347 347 344 342 345 349 346 345 346 347 340 344 344 342 341 342 343 344 343 344 344 344 343 343 343 341 343 347 346 346 346 344 345 346 347 347 347 346 343 344 342 341 339 339 341 343 347 347 347 346 346 346 346 346 346 346 347 347 347 346 346 345
340 344 345 345 346 345 345 344 344 345 346 348 351 353 353 352 352 351 350 349 349 349 349 347 346 344 337 345 344 343 344 343 342 343 343 340 345 342 342 343 344 343 344 343 343 342 344 343 344 347 347 349 347 343 343 343 344 348 349 349 345 343 342 342 342 342 340 341 345 347 347 346 345 346 346 347 348 348 347 347 346 346 345 346 345
339 343 344 346 345 344 345 347 344 346 346 347 349 351 352 351 350 350 350 350 349 350 348 345 343 344 343 345 344 346 346 348 345 346 346 344 343 342 342 342 343 345 343 345 342 343 343 343 348 349 349 347 341 340 337 337 343 346 347 346 345 340 343 343 340 342 343 342 343 345 345 344 344 345 346 347 347 348 348 347 345 345 344 345 344
341 344 344 344 345 346 346 347 346 347 347 346 350 350 351 348 349 350 349 348 348 347 346 346 344 343 344 344 345 346 345 337 340 341 341 337 335 340 343 342 341 339 343 340 336 334 342 340 344 346 340 340 339 342 341 342 342 345 345 346 346 345 344 344 341 342 343 348 346 345 344 345 345 346 347 347 348 347 348 347 346 345 344 344 345
344 341 342 343 346 346 345 346 347 346 348 347 347 348 350 348 350 349 348 349 348 345 345 345 344 345 344 344 345 345 346 345 347 347 345 340 332 331 333 335 335 337 336 339 340 342 339 342 342 341 344 347 346 348 347 347 345 341 341 344 341 341 339 338 340 342 343 347 346 347 346 346 347 347 347 348 347 347 347 347 346 345 345 345 344
341 342 342 343 345 347 347 347 345 346 347 345 347 349 348 348 349 350 348 348 346 345 343 343 344 345 345 346 343 343 344 344 346 345 343 342 338 334 335 338 340 337 335 340 345 344 345 346 345 348 348 347 345 344 342 341 344 338 339 337 339 338 340 339 338 338 340 347 347 347 346 346 346 346 347 347 347 347 347 346 345 345 344 344 343
341 343 342 343 345 346 347 348 346 346 346 344 345 349 348 349 353 349 349 346 345 343 344 345 346 344 346 346 346 345 343 342 345 344 343 344 341 341 340 334 340 342 345 348 346 347 346 346 348 344 343 344 340 340 339 337 337 341 336 336 337 340 339 339 341 342 341 345 347 346 344 343 344 344 346 346 347 347 346 346 346 345 344 343 343
343 343 342 343 345 347 348 346 346 346 345 345 345 347 349 349 352 350 346 346 346 343 343 346 346 343 346 347 347 347 344 344 344 344 343 345 344 346 343 344 346 345 348 349 347 346 347 347 346 341 343 341 340 344 337 339 340 340 337 335 336 337 340 342 343 343 341 348 347 344 343 341 341 342 343 345 345 346 346 346 346 345 345 343 342
343 343 343 344 346 347 347 346 344 344 345 345 346 347 348 348 350 349 348 346 345 346 346 344 344 343 343 346 347 346 346 345 344 344 343 345 345 348 349 349 346 348 351 347 357 348 347 345 341 341 338 341 341 341 339 336 334 336 335 335 335 337 342 341 343 342 344 346 346 343 342 340 340 340 340 341 344 344 344 344 344 344 344 344 343
345 343 343 343 345 347 346 347 346 348 346 344 346 347 349 349 350 347 348 346 345 347 346 345 344 345 346 348 347 348 348 346 345 345 345 345 348 351 350 349 347 346 351 349 351 349 345 343 343 341 343 341 340 340 337 336 335 335 335 335 334 339 339 341 342 344 345 347 347 342 339 341 340 339 338 337 337 338 339 340 341 341 342 342 342
344 343 343 345 345 345 345 347 346 347 347 344 346 346 347 348 349 346 347 346 347 345 344 345 345 345 346 348 348 347 348 347 346 346 345 346 347 348 349 347 346 351 350 348 349 348 344 345 345 347 346 344 340 339 339 335 335 333 333 330 335 334 336 339 342 343 342 342 345 345 343 340 339 338 337 334 333 333 333 334 335 336 338 338 338
344 345 344 346 345 345 344 345 345 346 346 345 345 346 347 347 348 346 347 346 346 345 343 344 345 347 348 349 348 347 348 347 349 347 345 346 347 349 348 349 349 353 350 350 346 348 349 348 349 345 342 340 339 339 334 336 334 335 335 331 336 334 337 337 339 341 341 339 338 339 341 341 339 336 334 332 331 329 328 328 328 330 332 333 334
342 344 347 347 345 346 345 345 344 342 345 346 345 344 347 347 346 345 346 347 344 342 343 345 345 345 347 347 346 345 346 347 347 349 347 347 349 350 347 346 350 352 352 353 347 347 347 345 344 342 338 337 335 337 334 333 330 333 334 333 336 338 338 337 338 339 337 335 335 335 333 334 335 338 333 331 329 328 327 326 325 325 326 327 329
343 344 344 344 346 344 344 342 344 343 346 345 345 344 347 344 344 344 346 347 345 343 342 345 345 345 345 344 345 345 346 347 347 350 350 348 347 346 346 351 351 350 347 349 351 348 347 344 341 339 339 337 335 335 334 336 335 332 333 338 334 336 339 337 336 336 335 335 333 330 330 329 332 332 333 334 328 327 325 325 324 323 323 323 324
345 344 345 344 342 344 344 343 344 344 346 346 347 346 345 346 345 345 347 348 343 343 341 344 345 344 343 344 346 346 347 347 347 351 351 349 345 346 347 353 351 349 352 351 350 347 346 344 343 342 341 335 335 333 335 335 335 336 338 337 338 337 336 336 335 333 333 335 332 331 328 327 328 328 330 329 331 326 324 322 324 322 321 322 322
345 344 344 344 342 343 342 343 342 344 346 347 347 347 346 346 346 347 346 346 342 341 342 344 344 345 345 343 345 346 347 347 348 350 352 349 347 347 351 351 349 349 353 349 347 345 345 342 342 340 341 336 334 331 334 333 332 336 337 337 337 337 336 334 334 333 333 331 330 327 325 324 325 326 327 324 324 324 325 321 321 321 321 320 320
345 345 343 342 341 342 341 342 342 345 345 345 346 346 347 346 346 346 347 344 343 342 344 344 344 343 344 343 345 346 347 350 350 351 353 348 345 347 348 350 348 350 348 347 345 345 344 342 340 340 339 338 332 332 330 330 333 336 336 335 337 335 335 335 334 331 329 327 325 323 322 322 323 323 323 321 318 319 320 321 321 320 320 318 318
345 345 344 343 342 341 341 342 341 343 344 346 346 347 347 347 345 346 346 344 343 343 345 344 345 346 344 346 345 349 351 351 350 350 352 346 346 350 349 350 346 346 346 344 343 342 343 341 338 339 341 338 330 333 330 332 335 336 333 335 335 334 335 333 332 326 323 323 322 319 319 319 321 323 322 319 317 317 319 320 318 318 318 319 318
345 344 344 342 341 342 342 341 341 343 343 344 344 342 342 342 342 343 342 341 342 342 346 345 348 344 345 346 346 351 350 350 348 349 350 349 346 346 349 349 346 345 343 343 340 339 338 338 339 335 338 337 331 331 331 335 337 333 332 334 333 334 332 332 328 322 319 319 320 319 318 319 319 321 320 318 318 318 318 318 318 317 318 318 319
345 343 341 342 341 340 339 339 341 343 342 340 339 340 338 340 341 339 339 341 340 343 346 346 347 346 346 345 347 348 349 347 347 345 346 346 347 349 347 346 344 343 342 340 340 339 339 338 338 337 333 332 328 331 331 335 334 330 333 331 332 334 332 328 320 316 317 319 319 318 318 319 319 318 318 319 318 318 317 317 317 317 316 316 317
342 342 341 340 341 341 340 340 340 342 341 341 340 341 342 340 340 338 339 341 341 342 344 345 345 347 347 346 344 343 341 338 343 343 344 346 343 344 344 343 342 341 340 339 338 338 337 338 337 337 331 329 325 327 329 330 331 325 326 326 329 329 331 326 319 317 315 317 319 319 319 318 317 317 317 316 317 316 316 317 319 317 317 318 317
342 342 341 340 340 339 339 340 340 340 341 342 341 341 342 343 341 340 341 342 346 347 347 340 343 343 346 344 343 342 341 341 340 343 344 344 343 345 342 342 342 340 339 337 336 336 336 335 334 335 332 330 326 326 328 329 326 326 328 327 322 322 324 323 321 318 315 316 316 317 316 317 315 316 316 316 315 316 317 317 317 317 318 317 316
341 340 341 340 340 339 340 339 340 342 342 343 342 343 344 344 343 345 345 344 344 345 342 346 348 345 341 343 343 342 342 343 341 339 341 341 344 342 341 340 339 338 337 335 334 333 333 332 333 333 336 328 321 321 326 327 326 326 321 324 323 324 317 318 320 318 317 316 317 315 318 316 317 317 317 315 316 316 317 316 316 316 317 317 316
340 340 340 340 340 340 340 341 340 342 342 343 343 343 343 342 343 344 344 342 343 343 340 339 341 342 340 340 341 341 341 341 341 341 341 340 341 340 339 338 337 336 335 333 332 330 329 330 330 330 333 329 320 321 321 324 322 323 321 320 313 314 313 317 318 314 317 315 316 318 316 317 317 316 314 313 315 315 315 315 316 316 317 316 316
340 341 343 341 341 341 341 341 341 343 342 343 344 343 343 340 339 337 335 335 333 338 335 336 338 337 337 340 341 339 339 339 340 340 338 338 338 339 339 337 335 335 333 332 330 329 328 327 328 329 327 330 328 319 318 322 321 318 320 319 318 316 314 318 319 311 316 317 316 314 314 315 315 314 313 314 314 314 313 315 315 315 316 315 314
341 342 342 341 340 339 340 341 342 341 342 343 344 343 342 341 341 339 338 335 335 338 338 341 338 337 337 336 336 338 337 337 338 337 338 337 338 336 336 335 333 333 331 330 328 328 326 325 326 326 327 327 328 325 322 318 319 319 319 319 319 320 321 319 314 316 310 311 312 312 311 312 313 313 312 313 313 314 314 313 313 313 313 314 314
341 342 340 334 335 337 341 343 342 342 343 342 344 343 341 340 338 338 338 337 333 335 337 338 338 336 334 333 334 334 334 334 335 334 334 335 335 333 333 333 331 330 328 327 327 326 325 325 325 325 325 324 324 322 320 317 314 315 320 317 317 318 318 318 318 315 311 308 308 311 311 312 313 313 313 313 313 312 313 312 312 312 312 312 312
341 340 331 331 333 337 336 338 341 341 341 342 341 340 340 339 338 338 336 340 339 336 336 335 332 332 331 331 332 332 333 334 332 332 332 332 332 331 331 330 328 326 325 324 323 323 323 322 322 322 322 322 321 322 321 320 320 317 316 317 316 315 316 317 316 316 313 310 307 309 310 315 315 313 314 314 314 312 312 311 311 311 311 312 312
340 335 333 335 335 337 337 338 338 340 340 340 339 337 338 338 337 338 338 336 335 334 334 332 330 332 331 330 330 328 330 331 333 331 330 330 330 329 328 327 326 324 322 321 321 320 321 321 321 321 321 320 321 321 319 318 318 318 319 319 316 316 315 314 314 314 313 313 306 306 308 308 307 310 313 312 312 309 310 311 312 309 310 310 311
336 334 335 334 335 336 336 336 337 337 339 338 337 337 337 338 337 338 335 334 333 332 331 328 327 328 327 327 328 328 329 329 329 329 329 328 328 327 326 325 325 324 322 321 320 318 317 319 320 321 320 319 318 318 317 317 317 317 316 314 314 314 312 311 312 313 313 312 309 307 308 308 306 307 309 310 310 307 308 309 309 309 309 309 310
Wind_Speed
13 17 16 19 17 17 16 14 13 13 13 11 10 10 11 11 11 12 11 11 11 11 11 11 11 12 12 12 11 12 13 14 14 14 14 14 14 14 13 12 12 11 12 12 12 13 12 12 12 12 12 12 12 11 12 12 12 11 12 11 11 12 12 11 11 10 10 8 8 9 9 10 9 9 9 9 9 9 9 12 14 3 8 9 9
17 17 16 17 18 16 15 15 14 13 13 12 11 11 11 10 11 11 11 11 11 11 11 11 11 11 13 12 11 12 13 14 14 14 14 14 13 13 13 13 12 11 10 11 12 12 12 11 11 11 11 11 11 11 11 11 11 11 11 11 10 12 11 10 9 8 6 5 6 8 10 10 10 9 9 9 9 9 11 13 16 9 7 8 9
17 16 16 19 19 18 15 15 15 14 13 13 12 12 11 11 11 12 12 12 11 11 11 11 11 11 12 12 11 12 13 13 14 14 14 14 13 13 13 12 11 11 10 9 9 10 11 10 10 10 11 11 11 11 11 11 11 11 11 10 9 9 9 8 7 5 2 1 2 5 9 11 11 10 9 8 9 10 11 12 13 12 7 10 8
18 15 16 18 20 16 14 15 14 15 14 13 13 12 11 11 11 11 11 11 11 11 11 11 10 11 12 12 11 12 13 13 13 13 14 13 13 12 12 11 11 10 10 9 9 10 10 9 9 10 10 10 9 10 10 9 10 9 9 9 8 8 8 7 5 3 4 5 3 7 5 8 10 10 9 8 8 9 9 10 10 10 8 7 7
17 16 16 16 17 17 15 14 14 15 14 14 13 12 12 11 11 11 11 10 10 10 10 10 10 10 11 12 11 12 12 12 12 12 12 12 12 12 11 10 10 10 10 9 8 8 9 9 9 9 9 9 8 8 8 8 7 7 7 6 7 6 6 5 4 2 6 10 7 7 9 9 7 9 8 8 7 7 8 8 9 8 7 6 6
16 16 16 15 15 17 15 14 15 15 15 14 13 13 12 12 11 11 11 11 11 10 10 11 10 10 11 11 11 11 12 12 11 11 11 11 12 12 11 10 10 9 9 9 9 8 9 9 9 9 8 7 7 8 7 7 6 6 5 5 5 5 5 4 3 6 8 11 12 8 1 7 8 6 7 7 7 7 7 7 6 7 7 6 5
17 14 15 15 14 15 15 15 16 15 15 15 14 13 13 12 11 11 11 11 11 11 11 11 10 10 10 11 11 11 11 11 11 11 11 12 11 10 10 10 10 10 9 10 9 9 9 8 8 8 7 7 7 7 6 6 6 6 5 4 4 4 4 4 6 9 8 9 8 2 4 6 7 7 7 7 7 6 6 5 6 8 7 10 12
14 13 15 14 14 16 16 15 16 16 15 15 14 14 13 12 12 11 11 11 10 11 11 10 10 10 10 10 10 11 11 10 10 11 10 10 10 11 11 10 9 10 10 10 10 10 9 8 8 7 7 6 6 6 6 5 5 4 4 4 4 4 4 7 9 11 12 9 3 4 5 5 9 7 8 6 6 5 6 5 5 8 10 12 11
13 15 15 14 16 21 16 15 15 16 15 15 15 14 13 13 13 12 12 11 11 11 11 11 11 10 10 9 10 10 10 10 10 10 11 12 12 11 10 10 9 10 11 10 10 10 9 8 7 7 6 6 5 5 6 5 5 4 3 4 3 3 6 7 10 12 10 3 4 3 6 5 9 9 8 7 7 6 7 8 7 7 10 10 10
13 13 14 13 16 20 17 15 15 16 16 16 15 14 14 13 13 12 12 12 11 11 11 11 11 10 9 10 9 9 10 10 10 10 10 10 10 10 10 9 9 10 11 11 10 9 8 7 6 6 6 5 5 5 5 6 6 5 4 4 4 5 6 9 10 11 10 4 8 7 8 10 10 8 8 6 5 6 8 7 9 9 8 9 7
14 13 12 14 19 19 16 15 15 15 16 16 15 14 14 14 13 12 12 11 11 11 10 11 11 10 9 9 9 9 10 10 10 11 10 10 10 10 9 9 9 8 10 10 10 9 8 6 6 5 5 4 4 4 5 6 6 6 6 5 5 5 6 9 10 8 1 5 5 5 8 2 8 7 7 4 4 5 4 6 6 5 6 7 8
13 12 11 14 19 18 16 14 15 15 15 15 15 15 14 13 13 12 12 11 11 11 10 11 11 10 9 9 9 9 10 10 11 10 10 10 10 9 8 8 8 8 9 9 9 8 7 6 5 4 4 3 3 5 5 6 7 7 6 5 5 7 7 8 8 7 1 6 6 5 6 4 10 8 7 3 4 4 4 5 5 5 7 7 8
14 12 14 17 16 16 15 14 14 14 15 15 15 15 14 13 13 12 12 11 11 11 11 11 10 10 9 8 9 9 9 10 9 9 10 10 9 9 8 8 7 7 7 8 8 6 6 5 4 3 3 3 3 4 5 6 6 7 6 5 5 7 9 10 7 9 5 5 2 2 5 6 8 9 6 3 4 4 5 5 5 6 8 8 8
13 13 14 14 13 18 14 13 13 13 13 14 14 12 13 13 13 12 12 11 10 11 10 10 10 9 8 8 9 9 9 9 9 8 9 9 9 9 8 8 7 7 7 7 6 6 5 4 4 3 2 3 4 4 4 4 4 4 5 4 5 7 10 12 11 3 3 4 1 6 4 5 7 8 5 3 2 3 4 5 6 7 8 8 8
12 15 14 13 14 15 16 12 12 12 12 12 12 11 12 12 12 12 11 12 12 10 10 10 9 8 8 8 8 9 8 8 8 8 8 9 9 8 8 7 7 7 7 6 5 5 5 4 3 3 2 2 3 2 3 3 3 3 3 4 5 6 9 7 8 4 2 2 2 2 3 5 11 8 5 1 2 3 4 5 6 7 8 8 8
13 14 14 14 14 15 14 14 12 12 12 12 11 12 13 12 12 11 11 11 11 11 11 10 9 8 8 8 8 7 7 7 7 8 7 8 8 8 8 7 6 7 6 6 6 5 4 4 3 2 2 1 1 2 2 3 3 3 3 3 6 7 9 8 7 3 1 1 1 1 8 5 10 9 5 1 2 4 5 6 6 6 7 7 8
12 13 14 14 15 14 14 14 13 13 12 12 11 12 12 12 12 12 12 13 12 11 11 10 10 9 8 6 6 6 6 7 6 6 6 7 8 8 6 7 6 6 6 6 6 5 5 4 3 2 2 1 1 1 2 3 4 4 4 4 5 7 9 9 7 5 3 5 6 2 7 3 8 9 5 4 2 4 5 5 6 6 7 7 8
12 13 14 15 15 14 13 14 14 13 12 12 13 14 13 13 12 12 13 13 12 12 10 10 10 8 7 6 5 5 5 5 6 6 6 6 7 7 6 6 6 6 6 6 5 5 5 4 4 3 2 2 2 3 3 4 3 4 4 6 7 8 10 11 7 6 2 3 5 3 7 7 9 7 5 4 4 4 5 6 6 7 7 7 8
11 12 13 15 15 14 14 13 13 12 13 10 11 14 15 14 12 13 14 13 13 12 11 10 9 8 7 6 5 5 4 4 5 5 5 5 5 6 6 6 5 5 5 5 4 4 4 4 3 3 5 4 4 5 5 5 5 6 6 7 9 9 11 9 7 8 4 3 1 4 5 10 7 6 5 4 5 5 5 6 7 7 7 7 8
9 11 12 13 13 14 13 12 12 13 12 12 12 13 16 15 14 14 14 14 13 13 12 10 10 8 7 7 7 6 6 5 6 6 5 5 6 6 8 6 4 4 4 4 4 3 3 3 4 3 5 6 6 7 8 7 7 8 8 8 9 10 7 6 9 7 4 3 1 5 8 6 7 4 4 5 6 6 7 6 8 8 8 8 8
8 10 10 11 13 13 14 11 12 13 12 12 11 13 14 16 15 15 15 14 13 13 11 11 10 9 8 9 10 7 6 5 8 6 8 6 6 5 7 6 4 4 4 4 3 3 4 4 5 7 6 9 9 10 11 11 10 9 10 10 10 7 6 7 5 6 4 5 6 6 6 5 3 3 3 5 6 7 7 7 8 9 10 7 7
9 9 10 11 12 12 12 13 11 14 12 10 9 9 12 14 13 13 12 13 12 11 10 9 9 8 9 8 7 4 5 5 5 6 6 7 6 6 6 5 5 4 4 4 5 5 5 6 7 8 10 9 13 8 8 10 11 11 11 11 7 6 6 6 4 6 6 4 7 7 7 6 4 3 4 6 7 7 7 8 9 10 9 6 6
10 9 9 12 10 11 12 12 12 13 14 12 10 11 13 11 13 12 11 12 11 11 9 8 8 8 8 6 4 4 4 4 5 5 4 6 7 7 6 6 6 6 6 7 7 8 8 9 9 9 11 13 9 8 8 8 7 12 10 7 6 6 6 4 5 5 4 6 7 7 8 8 8 7 7 6 7 7 7 8 9 10 10 7 6
11 9 10 10 10 9 11 11 11 13 12 9 10 11 11 10 10 11 10 10 10 9 8 6 6 7 6 4 4 4 4 3 5 6 7 6 6 7 7 6 7 7 9 8 10 10 11 12 11 12 10 8 7 9 5 4 6 7 7 7 6 5 5 5 5 4 5 7 6 9 11 9 8 8 7 7 7 6 8 7 6 8 10 8 7
9 9 10 10 11 11 10 11 11 12 12 10 10 10 11 10 10 10 10 9 9 8 6 6 5 6 5 4 5 4 5 6 6 6 6 6 6 6 6 6 6 7 10 8 7 8 10 8 8 9 7 8 6 4 4 5 5 4 4 3 3 3 4 3 3 4 3 7 7 10 11 10 9 8 8 7 6 6 7 7 6 8 9 9 8
9 9 11 11 10 10 11 10 10 12 11 10 11 10 11 10 10 9 9 8 8 8 6 5 5 5 6 5 5 5 5 6 6 5 5 6 7 7 7 7 7 7 8 8 7 7 8 7 5 7 4 2 2 2 2 3 3 4 3 2 4 5 5 5 4 4 4 8 8 12 13 12 11 10 10 9 7 6 6 7 5 7 8 8 8
9 10 11 11 10 10 11 11 11 11 12 10 9 9 9 9 9 8 8 8 7 7 6 5 6 6 5 5 5 5 5 5 4 4 5 6 6 7 7 6 6 6 6 8 2 2 4 2 3 2 2 1 2 2 2 3 2 4 4 4 3 4 3 5 5 5 5 9 10 15 14 14 14 13 12 12 11 10 9 8 7 7 7 7 9
9 10 10 11 10 11 11 12 11 11 11 10 10 9 9 9 8 8 8 7 7 6 6 6 6 6 6 5 5 5 4 5 5 5 5 4 5 5 5 5 5 5 3 4 3 4 3 1 3 3 3 1 2 3 3 4 4 3 3 4 3 4 5 5 4 5 4 9 8 12 15 15 14 14 14 14 13 14 13 12 10 9 9 8 9
11 11 11 12 11 10 12 12 11 12 11 10 10 9 9 9 8 8 7 8 6 6 6 7 6 6 6 6 6 4 4 4 5 5 4 3 3 3 4 3 3 2 1 3 3 2 2 1 1 3 1 2 1 1 3 3 3 3 3 5 5 5 4 3 4 4 4 8 7 10 15 15 15 15 15 16 16 16 16 15 15 14 12 11 10
9 10 11 11 11 12 12 11 10 11 11 10 8 9 9 9 8 8 7 7 6 6 7 6 6 6 6 6 6 5 4 3 3 4 4 4 3 2 1 3 2 1 2 3 4 1 2 2 2 2 3 2 1 2 3 4 4 4 5 3 3 3 3 4 4 4 4 8 8 8 14 14 15 15 16 17 18 18 19 18 18 18 18 16 15
10 11 11 11 9 11 12 11 11 11 10 10 9 9 9 9 8 8 8 7 7 7 7 6 6 6 6 6 5 5 4 4 4 4 4 4 3 3 3 2 3 0 4 6 1 1 1 1 2 3 3 4 3 3 3 3 4 3 3 4 4 3 4 4 5 5 6 8 6 7 10 13 15 15 15 16 16 16 17 19 18 18 19 19 19
11 11 11 13 13 11 11 11 11 10 9 10 9 10 9 9 8 8 7 7 8 6 6 6 7 6 6 6 5 4 4 4 3 3 3 3 4 4 3 1 1 3 5 3 1 2 1 3 3 1 1 2 3 3 3 3 3 5 5 6 4 5 5 5 5 6 6 5 6 6 6 9 14 15 15 16 16 16 16 17 17 17 17 19 19
9 11 10 13 14 12 11 11 12 11 10 10 9 8 8 8 8 8 7 7 7 6 6 6 6 6 6 6 5 5 3 4 3 4 3 4 3 2 3 3 2 0 1 1 2 2 0 1 2 1 2 1 1 2 4 2 3 3 4 5 5 6 5 5 6 6 7 8 8 6 5 6 9 14 16 16 16 16 17 16 17 17 18 17 17
11 11 10 14 11 10 9 9 10 11 10 9 7 8 7 7 7 7 7 8 6 6 6 6 6 6 5 6 5 5 5 4 4 3 3 2 3 4 2 2 1 1 1 1 2 1 1 3 3 1 1 2 2 3 3 4 3 3 5 5 5 6 6 7 6 6 7 8 7 7 7 7 6 5 9 15 15 15 15 14 15 16 16 17 18
11 11 11 13 14 11 9 9 9 11 10 10 9 8 7 7 7 7 7 7 6 6 7 6 6 6 6 6 6 6 6 5 4 3 3 2 4 3 3 5 4 3 2 2 3 1 2 3 4 4 4 2 2 2 3 3 3 4 5 4 5 6 5 6 6 7 7 7 7 7 7 7 7 7 6 4 13 15 15 12 12 13 15 15 16
12 12 11 11 11 13 11 11 11 11 11 9 9 7 8 7 7 7 8 7 6 7 6 7 6 6 6 6 6 6 6 5 4 4 4 5 4 3 5 2 1 1 3 2 3 3 3 2 3 4 4 4 4 4 3 3 2 4 4 4 5 4 4 5 5 6 6 6 6 6 6 7 7 7 7 7 6 11 15 11 9 10 13 14 14
10 12 12 13 12 12 11 12 12 11 11 10 9 8 7 8 7 7 8 8 7 7 6 6 6 6 5 5 6 5 6 5 5 4 3 4 4 3 5 1 5 3 4 1 1 2 2 2 2 3 4 5 3 4 3 3 2 3 4 4 4 5 6 7 7 6 7 7 6 6 6 6 7 8 7 8 8 8 10 11 7 11 11 13 11
11 13 13 12 12 12 10 11 11 10 10 9 9 8 8 8 8 7 8 8 8 6 6 5 6 5 5 5 6 5 5 5 5 5 3 4 3 2 5 4 5 3 3 1 3 3 3 3 3 3 4 4 4 4 4 3 2 4 5 3 6 7 5 5 5 5 6 6 6 7 6 6 6 7 7 7 8 7 8 8 10 4 11 12 11
8 11 11 12 11 12 10 11 11 11 10 9 9 9 9 8 7 8 8 8 7 5 6 5 5 5 5 5 5 5 4 5 6 6 4 4 4 4 3 2 5 2 2 2 2 3 2 3 3 4 2 2 4 3 3 2 1 2 5 8 8 6 5 6 7 7 6 6 6 7 6 6 6 7 7 7 8 8 8 8 7 8 8 13 10
9 10 12 12 13 12 9 10 10 10 10 9 9 9 9 9 9 8 8 7 7 7 6 6 5 5 5 4 5 3 4 5 7 5 5 1 4 4 3 2 3 3 3 3 3 3 3 2 2 2 2 1 4 4 3 2 4 5 7 6 7 6 6 7 7 7 6 6 6 6 7 6 6 6 7 7 7 7 7 8 7 8 8 9 9
12 12 12 13 13 13 12 13 11 11 10 10 10 9 9 9 9 9 9 8 7 7 6 6 6 3 4 4 4 2 2 1 4 2 1 3 3 4 4 3 4 5 3 3 4 3 2 2 1 1 2 2 4 5 4 5 2 6 6 6 5 6 7 8 8 7 7 6 6 6 6 6 6 6 6 5 6 7 7 8 8 8 8 8 9
13 14 13 12 12 13 13 12 11 12 11 10 10 9 9 9 9 9 8 8 7 7 7 4 4 3 3 3 6 7 9 7 7 5 1 2 4 2 3 4 4 3 3 3 2 1 2 2 3 2 2 4 3 6 5 7 6 3 6 5 6 5 6 7 8 8 7 6 6 6 5 6 6 6 6 6 6 7 7 8 7 7 8 8 8
13 14 14 13 13 12 13 13 11 12 11 11 10 9 8 8 8 7 7 6 4 3 4 5 7 4 4 7 4 4 3 1 4 5 2 3 3 1 5 4 4 4 2 2 1 3 2 2 2 2 3 4 4 5 7 8 3 1 2 6 5 6 5 6 7 8 8 7 6 6 6 7 8 7 7 6 7 7 6 7 7 7 7 8 8
13 14 14 15 12 10 11 12 12 12 11 10 10 9 9 8 7 6 7 6 4 3 2 5 5 6 7 6 6 7 5 3 2 4 4 1 1 4 3 4 3 3 2 1 3 2 1 2 3 2 3 2 4 5 7 8 6 5 5 5 6 7 7 4 6 6 8 8 6 6 5 5 6 6 5 6 6 6 5 6 7 7 7 8 8
13 14 14 13 9 11 10 12 13 12 11 11 10 9 8 8 7 8 7 7 4 5 8 6 6 5 7 6 6 7 5 4 4 4 5 3 3 3 4 4 3 1 1 4 2 3 2 3 3 3 5 3 4 4 6 7 8 6 6 2 4 4 4 7 6 5 4 5 6 5 4 5 5 5 6 6 6 6 6 7 7 7 7 8 8
13 12 13 12 11 9 10 12 11 11 11 11 11 10 9 9 9 9 9 9 7 6 7 8 7 6 7 6 7 6 5 5 3 3 5 4 4 4 4 3 3 1 3 3 3 3 5 5 4 4 4 5 3 4 5 6 6 8 9 7 5 4 3 5 6 4 5 6 5 5 5 5 5 5 5 6 6 6 7 6 7 7 7 8 8
12 11 10 12 12 12 13 13 12 11 11 11 11 10 10 9 9 9 8 8 6 4 3 4 7 7 7 7 7 6 6 5 4 4 4 4 5 5 4 2 2 3 4 3 4 4 5 6 5 5 4 3 3 4 4 4 5 7 7 7 8 6 6 3 2 6 6 4 4 4 5 6 6 6 6 6 6 6 5 7 7 8 7 7 7
11 9 10 9 8 7 4 9 10 10 11 12 13 12 10 9 10 9 8 6 7 7 6 7 7 6 7 7 7 7 5 4 4 5 4 5 5 4 2 2 3 4 4 4 5 5 5 5 5 5 5 5 5 4 4 5 5 5 6 6 7 7 7 6 6 6 3 4 5 5 4 4 5 6 5 5 5 5 4 6 7 7 6 7 7
11 10 12 14 11 10 13 5 7 12 12 12 10 11 9 9 9 8 8 3 6 8 9 8 8 7 8 7 8 7 5 4 6 6 5 5 4 2 3 3 4 4 5 5 5 6 7 6 6 6 6 6 6 5 5 5 4 4 4 5 5 6 6 6 6 6 5 1 4 1 1 3 2 5 5 5 4 4 2 5 5 6 7 7 7
10 14 15 13 10 12 12 13 12 11 10 11 11 10 8 8 9 8 7 6 8 8 7 8 8 8 9 8 7 6 5 5 5 6 5 5 5 3 4 4 4 6 6 6 7 7 6 7 7 7 7 8 6 6 6 5 5 5 5 4 4 3 4 5 6 5 5 6 4 2 1 1 0 3 2 4 4 4 4 5 4 7 7 7 7
14 14 13 13 14 14 14 16 16 13 14 14 13 12 10 9 8 8 10 10 9 9 8 9 9 9 8 8 7 6 5 5 5 5 5 4 4 5 4 4 5 5 5 5 6 6 6 6 7 9 9 8 7 7 7 7 6 7 7 6 6 6 5 5 5 5 4 4 2 2 2 2 2 2 2 0 3 6 5 5 6 7 7 7 7
Wind_Direction
142 132 135 133 137 139 142 143 145 143 139 134 138 129 127 132 128 128 118 119 123 123 122 122 122 120 118 117 113 109 107 103 101 97 93 91 89 86 85 84 79 87 96 94 98 91 87 87 84 83 79 77 76 77 79 79 74 76 81 79 75 74 69 66 68 66 68 76 88 87 82 77 69 63 62 55 43 28 24 8 351 132 59 66 61
137 132 135 140 135 137 144 144 143 144 142 140 140 135 129 128 129 126 125 128 127 126 127 125 124 121 118 116 114 112 108 104 101 99 99 97 94 93 92 92 89 82 85 97 99 99 95 88 87 84 80 78 77 79 80 79 74 75 70 72 75 64 66 65 63 61 67 78 86 104 103 91 81 75 68 56 49 36 23 22 12 30 67 60 62
131 133 138 138 135 138 142 143 144 143 143 143 142 137 135 135 134 132 134 130 129 129 128 126 124 121 119 118 116 111 108 105 105 104 102 98 96 95 94 92 92 91 90 86 87 91 95 94 91 85 82 79 78 78 81 80 79 72 73 73 71 69 68 65 59 50 31 85 89 110 114 105 92 83 71 64 56 47 34 32 28 29 55 37 44
132 133 137 133 133 137 141 143 144 145 145 145 143 141 138 137 136 136 133 132 130 130 128 125 122 122 119 119 118 113 110 109 107 104 101 100 99 97 96 95 96 95 92 95 97 92 92 96 93 86 80 76 74 74 75 76 75 74 71 73 71 69 66 65 55 32 297 274 208 202 157 126 99 82 73 64 55 52 47 46 46 47 45 45 44
134 135 133 139 137 136 142 145 144 147 147 146 144 143 140 141 139 138 133 131 129 130 126 123 123 123 122 121 120 117 114 110 106 103 103 105 104 102 100 100 101 105 100 92 99 97 93 92 90 86 78 71 70 72 68 71 69 67 65 64 64 64 61 52 45 322 280 270 244 219 238 88 91 87 75 62 61 54 54 53 52 45 36 33 38
134 131 138 142 142 139 143 144 148 148 148 146 147 144 142 142 140 138 135 133 132 129 128 127 124 126 123 121 121 118 113 107 106 106 104 102 96 98 98 96 93 89 93 102 103 105 97 91 90 89 84 78 70 66 64 57 55 52 53 46 48 41 40 17 331 299 286 291 287 256 136 108 100 98 77 76 66 64 62 52 51 38 27 2 27
132 133 140 143 141 141 142 145 150 150 151 147 149 147 144 144 142 140 137 135 134 134 131 128 126 125 124 124 123 119 112 106 105 103 100 99 102 95 92 91 90 95 105 109 108 106 102 100 98 86 83 80 72 65 58 50 39 33 36 24 8 19 1 334 294 283 283 283 260 208 86 84 91 85 87 71 58 52 45 46 42 45 34 9 13
131 137 144 141 143 138 142 148 150 152 153 150 148 150 148 146 144 142 140 138 138 137 133 128 126 127 128 124 122 118 112 109 106 103 104 105 94 88 85 88 97 104 104 107 110 108 112 105 96 90 81 75 70 62 50 39 29 25 15 7 354 340 332 301 300 295 286 277 336 29 77 61 82 90 82 59 52 43 20 359 37 69 36 22 12
137 140 142 141 136 140 144 149 150 153 154 151 150 151 150 147 145 143 142 142 140 137 134 131 131 128 127 122 122 119 115 112 107 103 99 91 89 87 88 87 85 92 103 109 110 109 104 104 95 89 82 72 66 57 46 32 30 25 16 354 336 311 288 276 268 273 269 242 47 33 8 40 90 85 81 59 53 31 29 354 164 98 47 26 8
138 141 138 139 139 138 148 146 151 153 154 152 150 151 149 146 147 145 143 144 142 139 136 135 133 129 125 125 125 122 116 112 106 101 101 95 91 91 95 97 104 105 107 108 110 107 103 97 95 86 79 69 56 48 40 34 23 24 13 352 340 305 287 282 285 280 275 68 67 49 48 351 67 70 74 63 39 36 20 14 18 28 22 10 14
138 140 140 133 138 138 146 148 148 154 155 153 151 151 148 148 146 146 146 145 144 143 139 138 133 128 129 129 127 119 115 110 106 101 97 96 91 87 89 97 103 110 112 111 112 110 96 90 87 83 81 71 59 49 40 33 27 19 14 6 328 316 299 293 295 278 256 94 100 124 103 231 69 64 84 66 56 33 16 8 13 10 9 5 2
140 135 142 129 129 138 144 148 150 152 155 153 150 150 148 148 146 147 148 147 147 143 140 138 135 132 135 133 130 128 122 115 109 103 101 97 95 90 90 96 104 104 108 113 106 100 94 89 90 93 82 69 53 42 38 31 25 19 14 9 345 312 311 297 280 293 73 57 49 358 37 90 67 85 87 48 30 16 354 353 354 2 354 358 357
138 138 112 124 140 136 145 148 151 153 154 152 151 148 149 147 147 147 147 146 147 144 141 137 133 133 137 137 133 129 122 116 113 111 108 103 101 99 95 95 96 107 108 113 111 103 107 105 100 97 85 59 46 41 33 28 18 16 12 3 330 309 297 294 274 254 48 51 32 163 81 60 80 93 80 41 12 5 0 353 355 346 348 347 351
144 132 132 134 136 141 142 148 150 150 150 152 149 149 149 145 148 145 144 145 146 142 137 133 134 138 138 138 133 129 121 118 117 116 115 110 106 104 103 100 106 112 116 122 117 118 116 114 106 97 80 43 35 33 28 18 19 12 7 351 322 305 308 295 277 305 315 79 127 24 37 72 82 92 90 39 24 349 345 343 337 339 340 346 345
144 132 141 138 136 145 145 144 148 148 146 145 144 144 142 144 142 143 144 146 144 138 134 130 133 140 138 135 130 127 128 125 117 116 116 113 110 107 109 110 110 117 123 122 126 120 118 121 110 97 76 53 33 16 5 4 359 358 353 336 310 299 299 298 299 32 332 10 19 286 115 111 112 109 97 86 333 335 321 322 333 330 336 340 340
139 135 136 139 144 147 151 150 146 143 142 140 141 141 144 141 141 139 142 139 136 129 129 130 132 134 135 135 131 126 129 125 121 120 123 119 118 118 112 112 116 117 123 128 124 126 120 113 114 93 69 55 34 345 336 344 332 316 327 317 301 298 292 293 297 299 319 303 298 172 76 77 112 122 129 171 271 301 305 308 317 328 327 328 334
137 136 138 140 146 151 154 160 148 137 138 138 135 139 138 139 139 140 137 137 136 131 129 129 128 119 127 132 127 126 126 128 125 122 130 131 134 123 121 120 120 122 126 128 129 128 130 123 126 126 112 118 269 289 290 297 312 308 287 289 292 286 287 296 304 307 343 23 298 351 65 131 134 126 149 192 245 276 290 303 307 314 317 320 319
143 147 143 142 147 156 153 159 149 159 150 144 139 143 142 140 140 142 138 138 137 132 123 126 125 127 125 129 140 137 133 135 146 146 143 148 139 137 129 130 125 128 133 136 133 134 135 131 133 152 168 212 240 239 242 256 274 281 276 272 277 277 281 279 283 287 276 28 309 32 89 117 134 147 155 193 238 260 280 293 300 299 307 312 316
155 155 145 149 150 154 153 155 159 163 155 163 160 149 148 144 143 141 138 136 133 129 128 126 127 117 124 143 133 127 122 131 140 150 153 149 159 138 145 137 128 142 141 141 142 141 141 148 140 179 201 219 239 249 244 245 235 248 266 263 256 266 273 276 270 273 318 253 24 7 113 129 134 161 177 205 228 248 264 281 290 294 300 304 303
162 161 150 152 152 154 154 156 165 162 164 166 161 160 151 152 147 144 138 138 135 130 130 129 128 132 140 149 150 150 157 159 162 159 163 172 164 203 146 137 149 149 149 149 150 162 167 173 196 202 224 219 226 233 237 234 235 236 248 246 253 261 263 257 271 304 324 343 310 62 113 147 136 164 208 221 234 247 259 274 286 296 294 294 294
172 165 156 153 155 156 154 154 175 164 166 165 162 164 152 152 149 146 144 142 133 134 130 129 136 140 155 170 175 182 163 154 180 168 160 182 182 184 155 142 167 175 156 167 178 186 201 211 223 228 233 229 225 227 229 223 219 225 226 240 251 251 257 275 311 305 324 323 36 69 93 99 121 157 268 260 260 263 272 280 286 289 293 288 290
172 163 159 153 158 158 157 158 173 162 165 166 164 161 156 166 161 156 156 144 141 141 152 154 156 150 172 173 200 171 182 160 155 147 181 150 165 165 166 163 176 184 190 192 207 211 220 228 232 235 235 236 228 223 212 224 226 213 216 228 235 248 258 267 307 324 321 333 57 74 78 61 33 333 311 300 290 289 292 286 276 278 285 272 275
169 162 160 159 164 160 163 163 173 160 166 174 161 163 163 171 165 163 152 157 155 167 173 168 177 158 186 181 177 176 179 140 163 178 142 160 143 170 181 190 191 196 205 216 220 221 226 228 233 236 234 233 231 229 221 196 201 213 218 219 242 254 272 313 282 274 315 31 76 78 58 45 18 349 330 324 311 306 297 280 278 284 291 275 275
168 160 160 159 164 161 165 153 173 158 173 173 169 165 168 174 168 161 164 162 163 178 170 197 174 172 171 170 175 155 140 116 94 121 133 157 146 175 188 198 201 210 220 223 222 229 226 226 224 221 227 233 233 230 269 166 183 189 204 219 230 269 320 319 326 335 319 61 68 63 56 42 19 3 348 333 329 316 302 290 267 279 288 279 275
164 158 158 160 166 158 168 155 171 164 176 173 168 170 170 171 169 167 168 167 170 170 164 193 173 174 163 184 155 175 155 147 160 172 183 157 157 174 178 199 198 201 205 225 206 201 207 212 211 220 224 228 244 327 315 328 325 303 303 310 309 304 295 297 307 328 335 82 75 71 66 51 36 23 19 11 351 338 322 310 274 284 284 288 286
157 164 160 156 164 162 175 162 169 171 177 179 176 169 168 171 168 168 170 171 167 173 163 181 162 183 181 175 154 191 184 159 176 178 166 156 164 169 184 187 191 200 192 226 219 204 200 225 203 219 227 297 244 265 352 294 318 317 305 343 337 327 330 333 345 342 4 82 78 72 65 58 48 42 39 37 25 8 355 349 323 306 304 301 303
161 164 167 158 164 174 169 169 172 173 187 178 169 172 177 166 165 171 171 168 167 172 168 165 170 185 188 161 180 189 188 156 165 175 172 180 173 179 190 178 198 196 201 228 209 260 274 264 235 226 287 302 329 316 302 309 313 314 323 343 335 303 332 347 344 351 353 88 72 64 66 61 53 48 43 39 34 30 22 22 8 344 334 321 313
169 162 167 151 163 174 173 176 172 176 189 178 173 178 173 164 162 168 175 160 164 176 163 169 156 181 182 174 196 197 180 167 164 184 180 191 175 185 178 179 192 203 204 252 209 240 263 328 338 307 282 272 352 353 327 326 337 307 315 304 333 3 357 350 358 353 345 83 79 72 67 63 55 49 47 44 43 39 36 33 23 11 358 352 347
173 170 165 147 162 171 173 177 173 181 184 183 173 176 167 166 160 172 170 160 171 174 169 149 166 186 182 182 201 200 184 178 179 175 182 171 194 175 198 171 196 205 162 265 271 257 253 287 297 284 224 340 12 8 343 317 289 284 352 344 12 3 356 349 6 359 18 81 80 74 75 71 62 54 51 50 47 45 43 41 37 29 22 13 7
169 162 173 155 161 174 179 173 175 183 181 186 173 175 169 166 166 173 159 167 170 157 156 171 174 179 177 190 190 193 193 193 162 174 169 174 184 194 190 197 205 124 12 330 311 294 280 263 276 312 354 325 358 32 331 331 319 1 22 341 29 346 3 13 14 21 30 92 88 87 87 83 75 67 58 53 48 44 41 38 37 36 36 34 33
168 176 162 148 163 174 174 175 176 195 177 189 175 176 169 168 167 164 154 179 163 157 168 174 178 182 172 190 179 193 197 181 186 189 160 171 162 181 208 193 186 143 84 258 172 271 285 296 351 8 1 345 352 10 336 344 343 17 341 18 15 359 38 32 28 30 51 99 97 107 92 89 85 79 71 61 55 42 35 33 30 29 25 27 28
173 180 174 151 157 177 175 178 182 202 178 185 180 173 171 167 168 163 168 171 163 161 181 174 181 173 168 187 183 192 195 181 195 200 174 169 172 197 199 190 234 154 196 235 187 299 314 29 33 30 348 304 349 6 292 20 341 31 340 21 19 15 36 39 39 36 37 71 115 102 101 99 91 85 76 73 64 56 47 37 32 27 24 23 16
174 183 178 145 152 174 168 183 184 190 179 184 180 174 171 167 170 171 168 162 167 172 179 182 177 166 164 188 180 184 204 184 194 211 189 189 171 171 213 185 80 321 280 19 325 231 226 168 124 221 1 325 350 3 341 11 22 23 27 354 33 28 32 43 51 45 39 43 33 37 60 93 108 91 84 79 71 68 56 48 39 33 28 24 16
178 175 189 149 151 156 169 182 184 184 185 183 175 178 169 165 173 173 163 167 173 175 174 185 176 166 176 183 185 184 203 193 189 188 212 205 133 203 187 122 70 47 58 223 222 258 33 31 338 329 352 321 20 25 345 15 16 15 39 358 43 45 24 48 43 56 50 42 39 33 30 26 19 66 95 85 82 70 63 54 46 42 35 26 20
173 175 161 183 145 161 164 175 177 182 178 179 177 177 168 168 173 172 161 174 179 181 177 182 175 173 176 182 191 184 201 186 196 183 199 161 188 176 177 81 268 190 204 91 281 84 41 11 27 345 353 354 352 36 2 20 6 24 25 38 23 51 60 48 43 30 44 53 44 36 29 22 20 16 3 92 88 72 62 56 56 51 44 35 25
169 159 163 169 169 156 172 170 174 179 178 176 170 169 169 176 176 163 165 179 179 187 181 178 182 174 181 171 192 189 192 190 189 180 173 208 156 171 90 195 257 295 31 3 289 60 50 22 18 13 359 348 8 11 357 22 12 48 32 42 58 50 34 65 43 55 30 21 32 38 29 24 19 13 14 7 25 79 63 40 73 57 57 45 29
148 161 169 167 173 152 174 166 173 177 177 171 167 165 167 172 173 169 169 178 180 189 177 181 181 181 168 178 184 196 198 177 194 181 187 219 145 146 120 154 151 34 250 221 73 43 49 26 35 28 17 335 351 31 346 19 3 91 78 64 81 55 53 27 36 33 32 38 27 35 30 29 23 11 26 16 13 359 37 31 57 81 63 56 35
162 164 174 167 165 157 173 165 174 175 169 168 167 170 172 174 176 173 174 182 184 184 175 179 182 181 178 186 184 191 192 175 174 177 197 211 157 143 133 189 99 177 218 151 80 60 34 24 15 35 23 338 358 14 358 30 346 69 78 71 35 56 51 63 61 46 43 33 35 26 25 28 27 28 21 28 15 9 5 13 2 84 70 49 31
171 154 159 165 158 163 167 160 175 170 169 166 168 172 175 180 174 176 177 181 181 174 177 184 177 183 183 181 180 183 187 177 190 176 175 185 149 157 127 124 134 152 96 135 114 77 47 35 17 3 359 26 358 0 16 340 67 95 84 61 77 55 57 51 38 42 35 31 35 27 22 20 34 32 28 23 21 14 10 7 7 4 1 28 11
158 148 168 159 158 158 156 163 178 168 167 170 176 180 180 178 177 180 178 183 176 172 176 180 182 171 197 172 170 222 180 194 190 173 161 152 135 121 107 122 93 53 67 37 35 53 22 3 34 359 329 76 34 342 29 317 105 94 84 86 77 79 58 56 58 41 30 28 34 32 22 22 26 25 37 24 27 17 12 10 14 4 355 6 0
162 152 168 166 158 158 158 166 176 169 172 178 180 184 181 180 179 182 178 175 179 171 176 176 184 162 159 206 181 185 209 134 328 145 311 145 128 121 120 96 95 89 70 65 44 31 334 345 343 114 332 55 36 354 19 320 201 120 112 112 102 77 73 66 63 49 38 35 35 37 34 26 24 28 22 32 30 27 17 16 15 8 3 360 357
168 164 165 167 158 150 164 163 175 175 179 183 177 187 184 181 177 179 178 173 170 181 190 133 299 110 169 136 44 13 27 351 326 359 228 232 57 15 97 88 88 92 69 70 56 260 30 10 300 154 47 54 50 9 11 321 221 183 149 126 133 114 89 94 75 57 43 41 46 40 46 35 30 31 21 25 31 28 26 17 7 7 1 355 355
168 167 162 164 157 158 167 167 178 176 181 180 180 181 187 181 185 171 167 167 163 194 142 132 213 190 79 52 78 86 61 36 342 303 10 29 128 139 72 81 72 77 117 94 106 42 15 343 333 319 141 104 75 34 20 357 16 326 161 169 157 149 133 112 96 76 58 46 40 45 37 33 33 31 30 23 22 18 14 15 2 4 358 353 354
168 169 167 165 161 159 166 170 178 185 182 178 182 176 177 171 163 148 162 146 164 165 75 158 129 140 106 110 83 79 91 97 68 20 314 212 35 103 95 74 72 68 84 160 56 61 48 29 11 7 312 131 55 51 34 29 19 351 194 218 150 162 170 149 109 81 79 64 51 50 33 39 29 23 32 28 21 14 10 18 0 7 358 356 355
171 173 171 169 158 159 163 180 179 183 180 173 177 165 155 163 162 163 171 143 156 190 164 167 163 123 108 103 101 75 84 81 110 194 131 5 51 77 73 69 54 58 237 67 69 42 60 57 44 34 12 36 96 71 49 38 37 26 355 298 161 196 70 126 118 107 94 81 64 52 50 41 40 33 37 36 26 21 11 17 6 4 0 356 357
173 176 170 161 145 139 173 189 183 179 175 169 168 158 166 168 170 174 176 180 171 184 191 157 152 135 112 99 116 108 96 78 38 78 103 117 64 63 48 98 106 110 67 79 85 87 42 53 38 34 52 15 99 91 80 57 56 44 46 55 23 16 61 114 207 127 114 99 85 58 51 49 41 44 44 35 32 23 17 7 5 2 359 1 358
174 175 159 141 140 166 188 191 178 174 170 169 163 161 165 172 175 177 179 185 149 206 175 147 130 124 125 118 117 117 106 70 75 87 81 88 67 53 49 40 87 89 80 84 77 61 57 41 40 46 38 42 37 92 82 90 68 51 53 54 50 47 47 358 14 126 147 105 70 74 66 58 50 34 22 29 20 16 17 8 3 358 358 0 356
159 151 130 83 115 172 233 192 172 167 170 171 169 178 170 171 171 180 185 177 162 188 128 124 118 119 121 121 119 117 86 71 69 69 60 69 64 65 65 79 92 89 97 82 68 63 70 60 53 54 56 47 51 65 75 66 65 55 34 49 61 57 45 50 27 337 21 115 132 127 105 87 75 51 19 0 3 7 359 12 359 353 351 356 353
165 138 106 128 178 168 145 155 180 177 174 173 172 179 172 166 170 175 175 157 140 135 134 116 114 121 126 127 121 107 85 58 74 63 56 75 87 72 88 105 98 94 89 85 80 72 67 70 68 64 63 62 56 56 70 64 66 71 82 67 60 53 54 41 23 23 12 89 105 66 167 154 178 71 25 351 334 354 352 16 349 345 356 353 351
142 118 137 154 161 157 159 178 176 173 171 173 179 175 166 164 172 173 137 131 127 129 132 119 119 136 131 123 111 101 96 77 50 76 69 65 93 130 120 108 85 78 80 87 84 80 78 75 71 73 73 72 59 58 66 73 67 54 46 53 66 76 74 56 34 24 47 27 47 38 8 329 42 76 38 350 305 17 20 18 345 8 357 354 350
125 139 147 148 155 162 176 180 182 183 182 183 180 175 171 172 174 150 145 136 131 135 135 128 137 134 132 128 123 113 99 92 91 79 100 113 95 100 121 104 96 95 95 90 89 93 92 83 79 74 72 73 76 76 73 72 72 63 62 58 58 54 48 50 32 31 20 20 20 49 359 297 58 91 69 176 296 25 18 13 21 13 5 4 1